Lapse_Rate
5.3 5.2 5.2 5.3 5.2 5.2 5.4 5.8 5.8 5.9 6.0 5.5 5.8 5.8 5.3 5.0 5.3 5.2 5.2 5.0 5.0 4.9 5.6 5.7 5.9 6.1 6.0 6.1 6.1 6.2 6.2 6.1 5.9 5.9 5.8 5.8 5.9 6.0 5.9 6.0 6.0 6.0 6.1
5.4 5.6 5.4 5.4 5.2 5.4 5.6 5.9 6.1 6.0 5.7 5.6 6.0 5.4 5.4 5.2 5.3 5.3 5.6 5.2 4.7 4.9 5.4 5.5 5.7 6.1 6.0 6.2 6.2 6.2 6.2 6.1 6.0 6.0 5.9 6.0 6.1 6.1 6.0 6.0 6.0 6.0 6.0
5.8 5.7 5.6 5.3 5.4 5.3 5.6 5.7 5.8 5.7 5.7 5.7 5.8 5.4 5.3 5.1 5.3 5.4 5.2 5.1 5.4 5.4 5.6 5.4 5.7 6.0 6.0 6.2 6.2 6.3 6.3 6.2 6.1 6.1 6.1 6.1 6.2 6.2 6.1 6.1 6.0 6.0 6.0
5.6 5.6 5.6 5.5 5.4 5.2 5.5 5.7 5.7 5.7 5.7 5.8 5.8 5.9 5.7 5.5 5.4 5.5 5.5 5.4 5.3 5.3 5.4 5.6 5.8 6.1 6.1 6.3 6.3 6.3 6.3 6.3 6.3 6.2 6.3 6.3 6.3 6.2 6.2 6.1 6.0 5.9 5.9
5.4 5.5 5.4 5.3 5.3 5.5 5.6 5.5 5.4 5.8 5.7 5.5 5.9 6.0 6.0 5.6 5.2 5.6 5.4 5.1 5.1 5.3 5.3 5.3 5.7 6.0 6.2 6.4 6.5 6.5 6.5 6.3 6.4 6.3 6.3 6.4 6.4 6.4 6.3 6.2 6.1 6.1 6.0
5.3 5.3 5.3 5.5 5.7 5.7 5.7 5.3 5.3 5.7 5.4 5.7 5.9 5.8 6.1 5.9 5.6 6.1 5.9 5.3 5.3 5.6 5.6 5.3 5.4 5.8 6.0 6.3 6.5 6.6 6.5 6.5 6.4 6.3 6.4 6.4 6.3 6.3 6.4 6.3 6.3 6.2 6.1
5.5 4.9 5.2 5.4 5.6 5.6 5.8 5.6 5.4 5.5 5.6 5.7 5.6 5.7 6.2 6.1 5.7 5.7 5.9 5.6 5.5 5.8 5.7 5.5 5.5 5.7 5.8 6.0 6.3 6.6 6.8 6.7 6.6 6.6 6.5 6.4 6.4 6.4 6.4 6.3 6.3 6.2 6.0
5.4 5.1 5.1 5.4 5.5 5.6 5.7 5.9 5.5 5.3 5.7 5.8 5.6 5.6 5.8 6.1 5.9 5.8 5.7 5.8 5.7 5.8 5.7 5.6 5.6 5.4 5.7 6.0 6.3 6.6 6.8 6.9 6.7 6.7 6.7 6.5 6.4 6.5 6.4 6.3 6.2 6.1 6.0
4.9 5.2 5.1 5.3 5.5 5.6 5.7 5.8 5.5 5.3 5.6 5.7 5.5 5.6 5.8 5.9 5.7 5.8 5.7 5.9 5.9 5.7 5.7 5.8 5.5 5.4 5.7 6.0 6.2 6.4 6.7 6.8 6.7 6.6 6.6 6.6 6.5 6.4 6.3 6.2 6.1 5.9 5.9
5.1 5.4 5.4 5.4 5.8 5.6 5.4 5.4 5.5 5.5 5.5 5.6 5.7 6.0 5.8 5.9 5.5 5.6 6.1 6.0 5.9 5.8 5.7 5.9 5.9 5.8 5.6 5.8 6.0 6.0 6.2 6.5 6.6 6.5 6.6 6.6 6.6 6.5 6.3 6.2 6.1 6.0 5.9
5.6 5.5 5.5 5.7 6.1 5.9 5.6 5.6 5.7 5.7 5.8 5.6 5.8 5.9 5.9 5.7 5.4 5.2 5.3 5.8 6.0 6.0 6.0 5.9 5.9 6.0 6.0 5.9 6.0 6.1 5.9 5.9 6.2 6.3 6.4 6.5 6.4 6.3 6.2 6.1 6.0 5.9 5.8
6.1 6.0 5.8 5.8 6.1 5.8 5.7 5.6 5.9 5.8 5.7 5.7 5.8 5.8 5.8 5.7 5.7 5.5 5.3 5.5 5.7 6.0 6.1 6.2 6.2 6.0 6.0 6.0 6.0 6.0 6.2 6.0 5.5 5.7 6.1 6.3 6.5 6.5 6.4 6.3 6.2 6.0 5.9
6.2 6.2 6.1 6.1 6.1 6.0 6.0 6.1 6.1 5.9 5.9 5.7 5.7 5.8 5.8 5.7 5.8 5.6 5.3 5.5 5.6 5.7 5.8 5.9 5.9 6.3 6.7 6.4 5.9 6.1 6.1 6.3 6.5 6.0 5.6 5.8 6.2 6.4 6.4 6.3 6.3 6.2 6.1
6.3 6.3 6.1 6.0 6.0 6.1 6.2 6.1 6.1 5.8 5.8 5.9 6.0 5.8 5.9 5.9 5.7 5.6 5.8 5.8 5.9 5.9 5.9 5.5 5.7 6.0 6.2 6.3 6.3 6.2 6.1 6.1 6.3 6.3 6.3 5.8 5.6 6.0 6.2 6.2 6.1 6.0 6.1
6.3 6.2 6.2 6.1 6.0 6.0 6.1 6.2 6.1 5.8 5.7 5.8 5.8 5.8 6.0 5.9 5.8 5.8 6.0 5.9 6.0 6.3 6.1 6.0 5.6 5.5 5.8 5.9 5.8 6.0 6.2 6.1 5.9 6.1 6.1 6.3 6.3 5.9 6.1 6.0 6.0 5.9 5.9
6.3 6.3 6.3 6.2 6.1 6.0 6.0 6.0 5.8 6.0 6.1 5.9 5.8 5.7 5.8 5.9 5.9 5.9 5.8 5.9 6.0 6.1 6.1 6.0 5.8 6.1 6.1 6.0 5.8 5.8 6.0 5.9 5.8 5.7 5.8 5.9 6.0 6.0 6.0 6.0 5.9 5.8 5.8
6.4 6.3 6.3 6.2 6.1 6.0 6.1 6.1 6.0 6.0 5.9 5.7 5.7 5.8 5.8 5.8 5.7 5.8 5.9 5.9 6.0 6.1 6.1 5.7 5.8 6.0 6.3 6.3 6.1 5.9 5.7 5.6 6.0 6.0 5.6 5.8 5.8 6.0 5.9 6.0 5.8 5.7 5.7
6.6 6.5 6.4 6.2 6.0 6.0 5.9 5.9 6.0 6.0 6.0 5.8 5.8 5.8 5.7 5.6 5.7 5.7 5.7 5.7 5.7 5.7 5.7 5.9 5.8 5.7 6.0 6.2 6.3 5.9 5.7 5.6 5.6 5.8 5.6 5.8 5.9 5.8 5.8 6.3 6.1 5.9 5.9
6.4 6.4 6.4 6.2 5.9 5.9 5.8 5.8 5.9 5.8 5.9 5.9 5.8 5.8 5.7 5.8 5.9 5.8 5.6 5.6 5.5 5.5 5.7 6.0 5.9 6.0 5.8 5.7 6.2 6.5 6.2 6.0 6.2 5.9 5.9 6.0 6.2 6.0 5.9 6.1 6.2 6.2 6.0
6.5 6.3 6.1 6.0 6.0 5.9 5.8 5.8 5.8 5.8 5.7 5.6 5.6 5.5 5.5 5.5 5.6 5.6 5.5 5.7 5.5 5.7 5.6 5.7 5.8 5.6 5.9 5.7 5.7 5.9 5.9 6.1 6.4 6.3 6.2 6.3 6.4 6.2 6.1 5.9 5.8 5.9 5.8
6.5 6.5 6.4 6.3 6.1 6.0 6.0 5.9 5.9 6.0 6.0 5.7 5.7 5.6 5.6 5.6 5.6 5.6 5.4 5.3 5.4 5.5 5.6 5.6 5.7 5.8 5.8 5.7 5.7 5.5 5.9 5.8 6.1 6.2 6.3 6.4 6.0 5.9 6.1 6.0 5.9 5.6 5.6
6.3 6.2 6.2 6.2 6.1 6.1 6.4 6.3 6.1 6.1 6.1 6.1 6.1 5.9 5.8 5.7 5.5 5.6 5.6 5.6 5.7 5.6 5.6 5.6 5.7 5.7 5.9 5.7 5.6 5.5 5.7 5.8 6.1 6.2 6.1 6.3 6.0 6.1 6.0 5.7 5.7 5.6 5.6
6.7 6.6 6.4 6.1 6.0 5.9 5.9 6.0 6.1 6.2 6.2 6.1 6.0 5.9 5.8 5.7 5.7 5.7 5.8 5.8 5.8 5.8 5.8 5.8 5.8 5.7 5.8 5.8 5.8 5.6 5.7 5.8 6.1 5.9 5.6 6.1 6.1 6.3 6.2 5.8 5.5 5.5 5.6
6.5 6.5 6.5 6.3 6.1 6.1 6.1 6.2 6.4 6.3 6.3 6.3 6.1 6.0 6.1 6.0 5.9 5.7 5.7 5.8 5.7 5.7 5.7 5.8 6.0 6.0 6.0 6.0 5.9 5.8 5.7 5.7 5.8 6.1 5.9 6.0 6.3 6.3 6.2 5.9 5.9 5.6 5.6
6.5 6.3 6.3 6.3 6.2 6.0 6.1 6.3 6.3 6.3 6.3 6.3 6.2 6.1 6.0 6.1 6.1 6.1 6.2 6.1 6.1 5.9 5.8 5.7 5.8 5.8 5.8 6.0 6.0 6.0 6.0 5.8 5.7 5.6 5.8 5.8 6.1 6.1 6.2 6.3 5.9 5.9 5.7
6.3 6.2 6.2 6.2 6.2 6.2 6.1 6.1 6.1 6.1 6.0 5.9 5.8 6.0 6.0 6.0 6.1 6.1 6.0 6.1 6.2 6.1 6.0 5.9 5.8 5.9 5.9 5.9 5.8 5.8 5.9 5.9 5.9 5.9 5.9 5.6 5.8 5.5 5.9 6.4 6.2 6.0 6.0
Wind_Speed
4 7 7 5 7 8 6 6 6 9 8 10 10 10 12 10 11 10 14 20 24 22 22 17 15 15 15 15 14 14 13 12 12 12 11 10 9 8 7 7 7 6 4
7 6 4 5 7 7 8 7 5 3 1 3 4 6 8 9 9 11 11 16 24 23 19 18 16 16 16 15 15 15 14 14 13 13 12 11 10 9 8 8 7 6 5
10 8 5 4 6 7 9 7 2 4 1 2 5 4 6 8 8 11 11 13 17 24 23 20 18 20 20 18 16 15 15 15 15 14 13 13 12 11 10 10 9 8 7
14 9 4 3 4 1 6 4 2 1 2 4 4 4 5 8 11 8 8 12 14 14 22 22 20 22 23 21 18 16 16 16 15 15 13 14 14 13 13 12 11 10 10
13 10 6 5 3 2 3 3 2 2 1 1 1 2 3 4 4 4 5 11 11 14 15 22 22 22 24 24 22 21 18 18 17 17 16 16 16 16 15 15 14 13 13
11 9 6 4 4 1 3 2 1 1 1 2 3 1 1 2 4 6 7 11 10 11 16 16 20 21 25 25 24 24 22 20 18 18 19 19 18 18 18 17 16 15 14
10 8 5 5 4 2 2 4 0 2 2 1 2 2 2 2 5 5 6 7 6 11 12 15 16 16 20 27 26 25 25 24 23 22 21 20 19 19 19 19 19 18 16
11 7 5 5 5 2 3 3 1 1 1 2 1 2 2 2 1 2 2 5 9 11 10 14 14 18 18 20 23 26 26 26 26 24 24 23 22 21 21 21 21 20 19
10 8 8 5 4 3 3 3 3 4 2 1 2 3 1 3 1 0 1 3 4 6 8 12 14 16 17 18 22 24 27 26 27 27 26 25 24 24 23 23 22 22 21
8 10 9 8 5 4 4 4 3 3 3 3 1 1 2 2 2 1 2 3 4 4 7 6 13 16 18 17 21 23 27 29 30 29 29 28 27 27 26 25 25 24 23
8 9 10 8 6 4 4 5 4 4 3 3 2 2 2 2 1 1 1 2 1 3 3 5 10 14 19 18 18 20 27 31 33 34 33 32 30 30 29 27 26 25 25
4 6 8 7 6 5 5 5 5 6 5 3 3 3 3 3 3 2 2 3 2 3 2 3 5 10 16 20 22 25 25 28 31 32 32 32 32 31 31 31 29 27 27
3 6 6 6 5 5 4 5 5 5 4 3 5 4 3 4 3 3 1 1 3 2 3 4 4 7 10 16 19 26 26 28 29 30 31 33 33 33 33 32 32 30 30
5 5 7 6 6 6 5 4 4 4 5 4 6 4 3 4 4 4 4 3 1 2 2 5 3 6 12 13 9 14 18 26 31 33 33 31 31 31 31 31 32 31 31
3 6 6 6 6 6 6 6 4 5 5 4 5 5 4 4 3 4 4 3 4 2 3 3 3 3 7 12 13 14 14 16 19 27 33 33 32 31 30 31 31 31 30
3 5 6 6 6 6 6 6 5 5 5 4 4 5 4 3 4 4 4 4 4 4 3 3 4 5 4 6 15 15 16 19 15 16 22 30 32 31 30 30 30 31 31
2 3 4 5 6 6 6 5 6 6 6 5 5 6 7 5 3 3 4 4 4 4 4 3 2 4 3 5 6 12 12 12 15 14 18 21 29 31 30 29 29 30 31
3 2 2 3 4 4 5 6 6 6 6 6 7 5 7 4 6 5 4 6 5 4 4 6 3 3 6 3 4 7 4 8 9 14 18 25 29 30 29 29 30 30 31
6 6 4 2 2 3 4 4 5 6 6 6 6 6 7 6 6 4 5 5 4 4 4 4 4 2 3 2 3 4 5 6 11 19 23 26 29 28 30 31 30 31 33
5 6 5 5 5 4 3 5 5 5 6 5 5 6 6 6 6 6 5 6 5 5 3 3 3 4 4 3 3 4 5 3 6 11 16 18 20 24 28 28 28 27 32
4 4 5 5 5 4 3 5 6 4 2 3 4 4 5 6 8 7 4 6 5 4 4 4 3 2 3 3 4 2 4 4 4 5 4 4 3 5 11 21 22 27 29
6 6 6 5 6 4 10 10 8 5 4 3 3 4 5 6 6 8 8 11 8 6 7 4 8 4 7 4 4 4 3 2 4 3 4 4 4 4 5 9 15 23 23
5 6 6 6 6 5 7 6 8 5 5 5 5 5 5 4 7 6 8 9 8 10 13 8 8 8 8 6 5 6 5 5 5 4 3 4 3 5 6 12 22 27 28
4 4 4 5 5 4 7 8 7 4 3 5 5 6 6 6 6 7 6 6 6 6 6 5 8 10 8 9 7 6 7 5 4 4 4 7 3 5 4 10 22 27 28
3 3 3 5 4 5 8 10 6 4 4 6 5 6 6 6 6 10 6 5 6 5 8 14 13 13 15 13 9 1 4 4 6 4 4 4 8 5 4 8 9 24 28
3 4 6 5 6 7 15 16 11 4 5 5 6 6 8 8 10 7 5 4 5 6 6 7 6 6 8 8 13 8 5 6 7 6 6 5 9 3 4 4 7 5 9
Wind_Direction
212 232 236 265 291 290 279 282 250 244 234 211 211 197 194 193 197 193 209 191 188 198 199 184 186 189 185 184 182 181 183 183 180 177 178 182 179 182 191 206 181 179 187
206 215 226 242 262 287 298 289 302 241 243 202 223 206 193 217 196 181 203 207 193 203 203 204 200 200 200 196 195 189 190 194 190 191 191 193 195 196 209 228 204 216 219
199 210 216 215 245 286 311 307 283 77 211 312 267 231 220 212 210 191 184 204 207 204 205 208 209 207 203 203 202 205 200 203 204 201 199 199 206 209 212 220 225 229 233
205 203 212 232 243 277 296 305 348 196 150 206 228 203 223 222 230 182 177 200 211 208 213 211 209 209 204 207 208 210 208 205 209 213 210 209 213 221 226 225 230 235 244
197 195 207 226 215 285 303 307 54 47 327 330 73 116 227 212 223 204 198 214 214 216 207 206 205 212 212 213 214 213 212 213 225 214 216 217 217 222 229 229 235 241 245
193 193 211 206 222 255 336 334 52 144 147 352 337 95 100 247 143 158 214 224 209 211 200 199 200 210 214 219 218 216 215 216 222 218 222 223 225 229 228 230 238 242 250
189 200 191 208 216 231 245 293 301 53 27 196 47 5 351 150 168 194 191 204 209 214 210 201 196 205 214 215 219 216 215 219 220 220 223 226 227 231 232 232 240 244 245
190 207 190 210 202 228 245 289 240 87 284 350 122 49 32 350 26 203 228 212 217 210 197 200 207 204 205 211 218 220 219 217 220 223 221 224 228 233 236 239 242 246 247
201 215 199 205 221 202 232 244 241 187 194 250 276 148 114 216 234 287 202 252 195 207 205 187 204 216 210 209 214 220 222 220 219 222 223 224 226 229 233 238 243 245 245
213 213 211 203 211 204 203 229 245 200 163 180 258 339 84 120 175 98 299 240 230 204 206 191 202 213 210 212 215 215 217 219 219 223 225 225 227 230 233 236 238 240 241
221 213 198 212 217 211 206 216 248 256 189 182 173 182 47 37 28 126 239 275 306 262 227 199 198 199 207 206 211 223 220 214 215 219 223 224 227 230 233 236 239 238 239
222 221 208 212 221 218 204 210 225 228 227 194 178 189 170 165 199 176 212 241 237 239 266 239 204 201 209 206 209 214 219 226 222 222 226 228 230 232 236 238 236 239 242
213 223 207 207 215 219 211 207 222 235 237 206 186 204 211 203 149 171 155 215 226 270 258 211 229 225 216 214 215 214 217 220 230 234 228 227 230 233 236 239 239 238 240
213 197 204 206 209 211 212 211 227 236 223 222 233 219 225 217 178 178 176 153 262 270 298 240 195 207 226 231 214 203 212 220 222 228 235 235 231 231 234 236 239 242 243
218 214 201 199 203 205 208 206 209 221 229 238 239 235 221 245 211 192 192 176 170 258 275 273 262 229 210 217 221 219 218 203 212 223 231 234 235 233 230 234 237 241 242
219 198 191 198 210 218 214 199 209 221 219 235 244 251 251 238 225 212 220 214 200 185 244 218 248 229 229 222 229 230 237 231 216 218 224 230 232 234 232 231 234 236 239
120 174 195 198 209 217 228 218 224 228 222 234 244 232 246 232 254 234 213 216 225 194 233 284 246 252 261 232 253 240 241 238 246 238 233 236 235 234 233 231 232 233 234
33 89 171 193 206 213 220 211 223 226 217 229 244 241 245 233 239 236 200 221 225 204 198 254 253 249 231 251 265 296 283 265 273 269 269 257 246 238 237 236 236 234 233
41 33 36 360 286 263 259 249 230 234 234 228 223 228 243 246 252 245 249 241 225 219 201 209 254 250 259 238 289 260 260 260 253 264 267 262 252 247 240 238 237 237 237
46 34 29 24 21 352 320 295 265 247 241 244 242 231 236 237 243 242 244 247 252 250 213 213 236 245 241 239 214 256 289 243 272 271 260 244 246 242 243 244 240 236 236
24 22 17 11 8 12 38 22 23 11 316 293 290 280 264 255 244 241 232 259 234 247 257 246 237 241 229 231 221 226 237 266 274 237 240 234 220 232 246 240 243 241 235
16 22 13 5 358 349 19 19 6 341 329 320 305 310 312 307 296 280 262 255 241 244 249 247 262 227 248 230 209 223 234 249 287 224 207 265 180 247 250 232 238 243 241
23 19 17 23 22 50 30 26 17 12 339 316 300 294 297 284 297 292 287 281 275 242 238 245 248 251 263 219 237 250 228 213 232 245 194 260 184 237 237 236 236 242 242
16 10 10 354 346 331 343 356 357 352 333 315 304 292 279 283 283 277 297 306 297 288 265 241 233 251 248 262 207 227 243 255 269 259 192 255 204 245 239 240 242 241 238
336 333 317 328 335 320 343 23 31 15 350 334 311 298 289 289 349 39 12 351 331 304 292 281 262 256 254 247 245 195 243 244 273 264 218 246 263 258 242 256 244 237 234
327 336 322 312 296 49 38 31 18 28 11 354 334 335 356 56 2 13 352 312 301 283 293 300 303 290 257 263 243 208 230 240 246 269 235 227 260 218 278 246 246 231 224